Voltar ao catálogo

NAJM-1

AtivoCiênciaSSO
NORAD 47947·PAYLOAD·🇸🇦 Saudi Arabia
Este nome de satélite ainda não foi confirmado por fontes oficiais.

Lançado Mar 22, 2021 de Baikonur Cosmodrome

Loading…

Próximas Passagens (próximas 24 horas)

TLE

AtualizadoSource: Space-Track

Época: Sep 14, 2026, 14:39 UTC

1 47947U 21022R   26257.61044453 -.00000561  00000-0 -31526-4 0  9992
2 47947  97.3421 129.4497 0016187 221.2186 138.7823 15.09049274301490

Acompanhe NAJM-1 em tempo real com AllMySat

Download on the App Store